{"data":{"norad_id":58715,"intl_designator":"2024-002L","name":"STARLINK-31102","alt_names":[],"object_type":"PAYLOAD","status":"ACTIVE","operator":null,"country":"US","launch_date":"2024-01-03","launch_site_code":"AFWTR","launch_vehicle":null,"mission":null,"orbit_class":"UNKNOWN","rcs_meters":null,"size_class":null,"mass_kg":null,"dimensions":null,"purposes":["comms"],"wikipedia_slug":null,"has_3d_model":false,"image_url":null,"decayed_at":null,"tle_current":{"epoch":"2026-05-25T04:17:12.638400Z","epoch_age_seconds":52909,"freshness":"FRESH","line1":"1 58715U 24002L   26145.17861850  .00157254  00000+0  50090-2 0  9997","line2":"2 58715  53.1603 234.8217 0002527  73.8179 286.3101 15.31469765133728","mean_motion":15.31469765,"eccentricity":0.0002527,"inclination_deg":53.1603,"raan_deg":234.8217,"arg_perigee_deg":73.8179,"mean_anomaly_deg":286.3101,"bstar":0.005009,"rev_number":13372,"period_min":94.027321525345,"perigee_km":469.69551508961,"apogee_km":473.15728443185,"semimajor_km":6849.5633997607,"source":"CELESTRAK","updated_at":"2026-05-25T13:38:18.716800Z"}}}